Weather in Plymouth

United Kingdom     50˚24′13″N   4˚08′31″W
temp.,
°C
wind,
m/s
gust,
m/s
humid.,
%
clouds,
%
prec.,
mm/h
press.,
hPa
HPBL,
m
29 november, sun
sun2900:00+8˚ene359392 0.0 1020116
03:00+7˚ene229189 0.0 102144
06:00+6˚ene128871 0.0 102239
09:00+7˚ne118282 0.0 102431
12:00+11˚ene127075 0.0 1025221
15:00+11˚ne007899 0.0 102527
18:00+8˚n118384 0.0 102623
21:00+7˚n11803 0.0 102723
30 november, mon
mon3000:00+7˚nnw127724 0.0 102824
03:00+6˚nnw228199 0.0 102724
06:00+6˚nnw1289100 0.0 102825
09:00+7˚nw129388 0.0 102832
12:00+11˚nw378794 0.0 1028483
15:00+10˚nw4990100 0.0 1027588
18:00+9˚wnw41094100 0.0 1027454
21:00+9˚nw61290100 0.1 1026598
1 december, tue
tue100:00+10˚nw51295100 0.7 1025572
03:00+10˚nnw51195100 0.1 1025544
06:00+10˚n51094100 0.1 1026499
09:00+7˚n3889100 0.0 1026325
12:00+8˚ne2466100 0.0 1028587
15:00+7˚n2373100 0.0 1027311
18:00+5˚nne2278100 0.0 102833
21:00+4˚n127995 0.0 102725
2 december, wed
wed200:00+4˚n117495 0.0 102725
03:00+4˚n017772 0.0 102524
06:00+4˚wnw118674 0.0 102325
09:00+6˚wsw119190 0.0 102228
12:00+8˚wnw139095 0.0 1021161
15:00+8˚nw379492 0.1 1019410
18:00+7˚nnw389478 0.2 1018344
21:00+4˚nnw369174 0.0 1017137
3 december, thu
thu300:00+4˚sw018687 0.0 101527
03:00+5˚s2384100 0.1 101181
06:00+5˚ssw3781100 0.1 1006206
09:00+6˚sw5990100 1.1 1002670
12:00+7˚ssw61090100 2.7 996748
15:00+7˚ssw71189100 2.0 990781
18:00+7˚ssw61085100 4.1 986598
21:00+4˚w2395100 0.3 98486